THORAD AGENA D DEB, 5026

Orbit data source: Space-Track

THORAD AGENA D DEB, 5026 is space debris in SSO originally from a launch on Wed, 08 Apr 1970 UTC launched from the Air Force Western Test Range (AFWTR). Debris objects in space refer to the collection of defunct objects orbiting the Earth. Examples of debris include non-operational satellites, rocket bodies, and fragments generated from explosions, collisions, or faulty payload assembly.

Loading next visibility...
Identifier
5026, 1970-025JA
Orbit
SSO
Country
Flag of USUS
Related business
Manufacturer
Unknown
Mission
Spacecraft
Bus & Motor
Unknown
Mass
Unknown
Launch date (UTC)
1970-04-08 (56 years ago)
Launch vehicle
Unknown
Launch site
Air Force Western Test Range (AFWTR)
Object type
Payload
Rocket body
Debris
Shape & HBR
Unknown shape, 0.1 m
Radar Cross Section
Small (<0.1 m²)

Expand to show TLE details & history
Last TLE update: 2 days ago

TLE from 2 days ago
0 THORAD AGENA D DEB
1 05026U 70025JA  26071.67182887  .00001329  00000-0  13809-2 0  9998
2 05026 100.1909 332.8384 0035606 330.6076  58.8470 13.77455126771302
Epoch: 2026-03-12T16:07Z
TLE epoch observation values (Epoch: 2026-03-12T16:07:26.014Z)
Latitude
29.33709°
Longitude
-85.10666°
Altitude
963.002 km
Speed
7.38 km/s
True Right ascension
21h 48m 16s
True Declination
29° 11' 40"
Sunlit
Object was in daylight at epoch
Visualization orbit readout
Latitude
Unknown
Longitude
Unknown
Altitude
Unknown
Speed
Unknown
Apparent Right ascension
Unknown
Apparent Declination
Unknown
Sunlit
N/A
Visualization observer readout
Local Sidereal Time
09:07:58
Azimuth
Unknown
Elevation
Unknown
Doppler factor
Unknown
Orbital elements
Apogee altitude
996.382 km
Perigee altitude
944.053 km
Semi-major axis
7,348.355 km
Eccentricity
0.00356
Inclination
100.1909°
RAAN
332.8384°
Arg. of periapsis
330.6076°
True anomaly
59.19698°
Mean anomaly
58.847°
Eccentric anomaly
59.02191°
Mean motion
3.44555 °/min
Orbital period
104.48 mins
BSTAR
0.0013809
Loading maneuver chart data...
Computing Atmospheric mass density...
Loading historical data...
Loading historical data...
Loading historical data...
Loading historical data...
Loading historical data...
Loading historical data...
Loading historical data...

Documentation

Showing up to 5 results
|